QPF
0.00 0.00 0.01 0.01 0.00 0.00 0.00 0.00 0.01 0.00 0.00 0.00 0.00 0.00 0.00 0.00 0.00 0.00 0.00 0.00 0.00 0.00 0.00 0.00 0.01 0.01 0.01 0.01 0.01 0.02 0.02 0.02 0.03 0.03 0.05 0.08 0.09 0.08 0.05 0.05 0.05 0.06 0.05 0.06
0.00 0.00 0.00 0.00 0.00 0.00 0.00 0.00 0.00 0.00 0.00 0.00 0.00 0.00 0.00 0.00 0.00 0.01 0.01 0.00 0.00 0.00 0.00 0.01 0.01 0.01 0.01 0.01 0.01 0.01 0.02 0.03 0.04 0.04 0.04 0.05 0.06 0.06 0.04 0.03 0.04 0.06 0.06 0.05
0.00 0.00 0.00 0.00 0.00 0.00 0.00 0.00 0.00 0.00 0.00 0.00 0.00 0.01 0.01 0.00 0.01 0.02 0.01 0.01 0.00 0.00 0.00 0.01 0.02 0.02 0.01 0.01 0.00 0.01 0.02 0.03 0.04 0.05 0.05 0.06 0.06 0.05 0.05 0.05 0.05 0.06 0.06 0.05
0.00 0.00 0.00 0.00 0.00 0.00 0.00 0.00 0.00 0.00 0.00 0.00 0.01 0.03 0.04 0.03 0.03 0.02 0.01 0.03 0.03 0.02 0.03 0.04 0.03 0.02 0.02 0.01 0.00 0.01 0.02 0.03 0.04 0.05 0.06 0.11 0.15 0.14 0.10 0.08 0.06 0.05 0.05 0.05
0.00 0.00 0.00 0.00 0.00 0.00 0.00 0.00 0.00 0.00 0.00 0.01 0.01 0.03 0.07 0.07 0.08 0.04 0.02 0.03 0.07 0.06 0.07 0.07 0.05 0.02 0.01 0.02 0.00 0.01 0.02 0.03 0.04 0.06 0.07 0.10 0.13 0.12 0.09 0.07 0.07 0.08 0.08 0.07
0.00 0.00 0.00 0.00 0.00 0.00 0.00 0.00 0.00 0.00 0.00 0.01 0.01 0.03 0.07 0.11 0.09 0.05 0.05 0.05 0.05 0.04 0.05 0.08 0.07 0.04 0.03 0.02 0.01 0.01 0.02 0.02 0.03 0.04 0.04 0.05 0.06 0.08 0.09 0.07 0.07 0.07 0.08 0.07
0.00 0.00 0.00 0.00 0.00 0.00 0.00 0.00 0.01 0.02 0.03 0.02 0.02 0.04 0.07 0.08 0.08 0.07 0.10 0.08 0.03 0.06 0.04 0.04 0.05 0.03 0.03 0.03 0.03 0.02 0.03 0.02 0.02 0.02 0.03 0.04 0.05 0.07 0.08 0.08 0.08 0.09 0.08 0.06
0.00 0.00 0.00 0.00 0.00 0.00 0.00 0.00 0.02 0.03 0.03 0.04 0.05 0.06 0.08 0.10 0.10 0.11 0.09 0.05 0.03 0.04 0.03 0.03 0.02 0.02 0.02 0.04 0.04 0.03 0.03 0.03 0.02 0.03 0.04 0.05 0.06 0.07 0.07 0.08 0.08 0.09 0.08 0.06
0.00 0.00 0.00 0.00 0.00 0.00 0.00 0.00 0.00 0.01 0.02 0.04 0.05 0.06 0.05 0.08 0.12 0.08 0.03 0.02 0.03 0.04 0.04 0.03 0.01 0.01 0.02 0.04 0.05 0.03 0.03 0.03 0.04 0.05 0.06 0.06 0.07 0.08 0.07 0.08 0.08 0.09 0.08 0.07
0.00 0.00 0.00 0.00 0.00 0.00 0.00 0.00 0.00 0.02 0.04 0.05 0.07 0.09 0.08 0.08 0.07 0.07 0.05 0.03 0.03 0.04 0.04 0.03 0.03 0.01 0.02 0.02 0.03 0.03 0.04 0.03 0.04 0.05 0.05 0.04 0.06 0.07 0.07 0.07 0.05 0.06 0.06 0.07
0.00 0.00 0.00 0.00 0.00 0.00 0.00 0.00 0.01 0.03 0.04 0.06 0.08 0.11 0.11 0.14 0.13 0.10 0.05 0.02 0.02 0.04 0.05 0.05 0.05 0.02 0.02 0.02 0.02 0.02 0.02 0.03 0.04 0.04 0.05 0.05 0.05 0.05 0.05 0.06 0.05 0.05 0.07 0.08
0.01 0.01 0.01 0.01 0.01 0.00 0.00 0.00 0.01 0.05 0.06 0.07 0.08 0.09 0.07 0.09 0.11 0.10 0.04 0.01 0.01 0.03 0.05 0.06 0.10 0.08 0.04 0.03 0.03 0.02 0.02 0.03 0.05 0.05 0.05 0.04 0.05 0.05 0.05 0.05 0.05 0.05 0.08 0.10
0.02 0.02 0.03 0.04 0.05 0.02 0.01 0.01 0.01 0.02 0.05 0.06 0.07 0.09 0.08 0.05 0.04 0.04 0.03 0.01 0.01 0.02 0.02 0.04 0.09 0.09 0.07 0.05 0.04 0.03 0.03 0.04 0.05 0.05 0.05 0.06 0.05 0.05 0.05 0.05 0.06 0.05 0.06 0.08
0.02 0.04 0.05 0.06 0.05 0.04 0.03 0.02 0.01 0.02 0.05 0.05 0.05 0.06 0.06 0.06 0.05 0.03 0.02 0.01 0.01 0.02 0.02 0.03 0.05 0.07 0.09 0.08 0.05 0.05 0.05 0.05 0.06 0.06 0.07 0.06 0.05 0.06 0.06 0.05 0.05 0.05 0.04 0.05
0.01 0.03 0.04 0.04 0.02 0.02 0.03 0.03 0.02 0.02 0.02 0.03 0.04 0.04 0.04 0.05 0.05 0.03 0.01 0.01 0.01 0.02 0.02 0.02 0.03 0.05 0.08 0.09 0.07 0.06 0.07 0.06 0.05 0.06 0.06 0.06 0.06 0.05 0.04 0.04 0.05 0.06 0.07 0.06
0.03 0.03 0.02 0.02 0.01 0.02 0.02 0.02 0.02 0.01 0.01 0.01 0.02 0.03 0.02 0.02 0.02 0.02 0.02 0.02 0.02 0.02 0.02 0.02 0.02 0.03 0.05 0.08 0.09 0.09 0.07 0.05 0.05 0.06 0.05 0.06 0.07 0.06 0.04 0.04 0.05 0.06 0.07 0.08
0.02 0.03 0.03 0.03 0.02 0.04 0.05 0.02 0.02 0.02 0.01 0.01 0.02 0.02 0.01 0.01 0.01 0.02 0.02 0.02 0.01 0.02 0.02 0.02 0.01 0.03 0.04 0.06 0.08 0.07 0.07 0.05 0.04 0.05 0.04 0.04 0.05 0.05 0.06 0.05 0.06 0.06 0.06 0.08
0.01 0.02 0.03 0.04 0.05 0.08 0.08 0.04 0.02 0.02 0.02 0.01 0.01 0.01 0.02 0.02 0.01 0.02 0.03 0.02 0.01 0.02 0.03 0.01 0.01 0.02 0.03 0.04 0.05 0.05 0.04 0.04 0.04 0.04 0.05 0.05 0.05 0.04 0.05 0.05 0.06 0.07 0.06 0.07
0.01 0.03 0.04 0.05 0.07 0.08 0.06 0.03 0.02 0.02 0.03 0.02 0.02 0.02 0.03 0.02 0.02 0.03 0.03 0.02 0.01 0.02 0.02 0.02 0.01 0.01 0.02 0.02 0.03 0.03 0.04 0.04 0.04 0.04 0.05 0.05 0.04 0.04 0.04 0.05 0.06 0.07 0.06 0.06
0.02 0.04 0.04 0.06 0.07 0.09 0.07 0.04 0.02 0.02 0.05 0.02 0.01 0.03 0.04 0.02 0.04 0.04 0.02 0.02 0.03 0.03 0.03 0.02 0.01 0.02 0.03 0.02 0.02 0.02 0.03 0.02 0.03 0.03 0.03 0.03 0.03 0.03 0.03 0.04 0.06 0.06 0.06 0.06
0.04 0.04 0.04 0.05 0.06 0.07 0.04 0.03 0.02 0.05 0.07 0.04 0.02 0.02 0.02 0.03 0.03 0.02 0.02 0.03 0.04 0.05 0.04 0.04 0.03 0.04 0.03 0.03 0.03 0.03 0.02 0.01 0.01 0.02 0.03 0.03 0.04 0.03 0.02 0.03 0.05 0.06 0.07 0.06
0.04 0.05 0.05 0.04 0.06 0.07 0.03 0.02 0.04 0.06 0.05 0.03 0.02 0.01 0.01 0.01 0.02 0.03 0.04 0.04 0.04 0.04 0.05 0.04 0.03 0.05 0.05 0.04 0.04 0.03 0.03 0.02 0.01 0.01 0.02 0.03 0.03 0.02 0.01 0.03 0.04 0.05 0.06 0.06
0.04 0.04 0.04 0.06 0.07 0.05 0.03 0.03 0.04 0.04 0.04 0.03 0.02 0.02 0.01 0.01 0.02 0.04 0.05 0.04 0.04 0.05 0.05 0.04 0.03 0.04 0.06 0.06 0.05 0.05 0.03 0.02 0.01 0.01 0.01 0.01 0.02 0.02 0.02 0.03 0.04 0.04 0.04 0.04
0.03 0.03 0.03 0.04 0.04 0.03 0.03 0.03 0.03 0.03 0.03 0.02 0.02 0.02 0.02 0.02 0.02 0.04 0.05 0.04 0.04 0.05 0.05 0.04 0.03 0.04 0.04 0.05 0.05 0.07 0.05 0.03 0.01 0.01 0.01 0.01 0.02 0.03 0.03 0.03 0.03 0.03 0.03 0.02
0.03 0.03 0.03 0.04 0.04 0.03 0.04 0.03 0.02 0.02 0.02 0.03 0.03 0.03 0.03 0.03 0.03 0.03 0.03 0.03 0.03 0.03 0.04 0.04 0.04 0.04 0.04 0.05 0.05 0.04 0.04 0.03 0.03 0.02 0.02 0.02 0.02 0.02 0.02 0.03 0.03 0.03 0.04 0.03
0.04 0.03 0.03 0.04 0.05 0.04 0.05 0.04 0.03 0.02 0.02 0.03 0.04 0.04 0.05 0.05 0.04 0.04 0.03 0.02 0.02 0.03 0.04 0.04 0.04 0.04 0.04 0.05 0.05 0.04 0.03 0.03 0.03 0.02 0.02 0.02 0.02 0.01 0.01 0.01 0.01 0.02 0.04 0.03
MSLP
1004.64 1005.02 1005.15 1005.06 1004.77 1004.35 1003.88 1003.44 1003.09 1002.89 1002.85 1002.97 1003.22 1003.56 1003.95 1004.34 1004.68 1004.96 1005.17 1005.30 1005.39 1005.46 1005.54 1005.67 1005.86 1006.13 1006.46 1006.85 1007.26 1007.68 1008.08 1008.45 1008.79 1009.11 1009.41 1009.73 1010.07 1010.46 1010.90 1011.38 1011.90 1012.46 1013.02 1013.59
1004.87 1005.04 1005.02 1004.81 1004.47 1004.08 1003.70 1003.39 1003.19 1003.11 1003.14 1003.26 1003.45 1003.68 1003.92 1004.17 1004.40 1004.63 1004.86 1005.08 1005.31 1005.55 1005.80 1006.06 1006.33 1006.62 1006.92 1007.23 1007.56 1007.90 1008.25 1008.61 1008.99 1009.37 1009.77 1010.17 1010.59 1011.02 1011.48 1011.96 1012.47 1013.00 1013.56 1014.13
1004.81 1004.79 1004.62 1004.33 1004.01 1003.71 1003.48 1003.36 1003.34 1003.40 1003.50 1003.61 1003.69 1003.75 1003.79 1003.83 1003.90 1004.03 1004.25 1004.55 1004.92 1005.35 1005.80 1006.24 1006.65 1007.01 1007.33 1007.61 1007.88 1008.16 1008.47 1008.82 1009.22 1009.65 1010.11 1010.58 1011.06 1011.53 1012.00 1012.47 1012.95 1013.46 1014.00 1014.56
1004.47 1004.29 1004.01 1003.70 1003.45 1003.30 1003.28 1003.39 1003.59 1003.79 1003.96 1004.02 1003.97 1003.82 1003.60 1003.38 1003.24 1003.22 1003.39 1003.74 1004.24 1004.86 1005.53 1006.18 1006.76 1007.24 1007.62 1007.92 1008.17 1008.41 1008.69 1009.02 1009.42 1009.89 1010.39 1010.92 1011.44 1011.93 1012.41 1012.87 1013.33 1013.82 1014.33 1014.87
1003.93 1003.62 1003.28 1003.00 1002.87 1002.91 1003.14 1003.51 1003.92 1004.28 1004.50 1004.51 1004.31 1003.93 1003.42 1002.92 1002.53 1002.34 1002.42 1002.78 1003.39 1004.18 1005.05 1005.91 1006.68 1007.30 1007.78 1008.12 1008.38 1008.60 1008.86 1009.17 1009.57 1010.05 1010.58 1011.13 1011.68 1012.20 1012.68 1013.14 1013.58 1014.04 1014.54 1015.07
1003.31 1002.90 1002.55 1002.34 1002.35 1002.60 1003.07 1003.68 1004.30 1004.80 1005.07 1005.03 1004.69 1004.08 1003.32 1002.54 1001.91 1001.54 1001.52 1001.87 1002.54 1003.46 1004.50 1005.55 1006.49 1007.26 1007.84 1008.24 1008.51 1008.73 1008.96 1009.25 1009.63 1010.11 1010.64 1011.21 1011.78 1012.31 1012.80 1013.25 1013.69 1014.13 1014.61 1015.12
1002.75 1002.29 1001.94 1001.81 1001.95 1002.39 1003.06 1003.87 1004.65 1005.26 1005.56 1005.49 1005.03 1004.25 1003.28 1002.30 1001.47 1000.96 1000.85 1001.17 1001.88 1002.89 1004.06 1005.25 1006.32 1007.21 1007.86 1008.31 1008.60 1008.80 1009.01 1009.27 1009.63 1010.08 1010.61 1011.18 1011.75 1012.29 1012.78 1013.23 1013.65 1014.08 1014.54 1015.04
1002.38 1001.90 1001.57 1001.49 1001.72 1002.27 1003.07 1004.00 1004.88 1005.54 1005.87 1005.77 1005.25 1004.37 1003.29 1002.19 1001.26 1000.67 1000.51 1000.82 1001.56 1002.62 1003.86 1005.13 1006.28 1007.22 1007.92 1008.38 1008.67 1008.86 1009.03 1009.26 1009.59 1010.01 1010.52 1011.08 1011.64 1012.17 1012.66 1013.10 1013.51 1013.93 1014.36 1014.84
1002.30 1001.81 1001.49 1001.43 1001.69 1002.26 1003.08 1004.01 1004.90 1005.56 1005.88 1005.77 1005.24 1004.36 1003.27 1002.17 1001.25 1000.67 1000.53 1000.86 1001.62 1002.70 1003.96 1005.24 1006.40 1007.35 1008.04 1008.50 1008.76 1008.92 1009.07 1009.26 1009.55 1009.94 1010.42 1010.96 1011.51 1012.02 1012.50 1012.92 1013.32 1013.71 1014.12 1014.56
1002.54 1002.06 1001.73 1001.64 1001.85 1002.35 1003.07 1003.90 1004.68 1005.27 1005.54 1005.42 1004.93 1004.12 1003.13 1002.15 1001.35 1000.87 1000.82 1001.20 1001.99 1003.07 1004.31 1005.55 1006.66 1007.56 1008.22 1008.63 1008.87 1009.00 1009.11 1009.28 1009.54 1009.91 1010.36 1010.87 1011.40 1011.89 1012.35 1012.75 1013.12 1013.48 1013.85 1014.26
1003.07 1002.61 1002.27 1002.12 1002.20 1002.53 1003.06 1003.67 1004.27 1004.70 1004.87 1004.74 1004.29 1003.61 1002.81 1002.03 1001.43 1001.14 1001.22 1001.70 1002.51 1003.58 1004.76 1005.92 1006.95 1007.77 1008.35 1008.72 1008.92 1009.03 1009.14 1009.30 1009.56 1009.91 1010.35 1010.84 1011.35 1011.82 1012.25 1012.62 1012.96 1013.29 1013.63 1014.00
1003.77 1003.37 1003.02 1002.79 1002.72 1002.83 1003.08 1003.42 1003.74 1003.95 1003.98 1003.80 1003.41 1002.86 1002.27 1001.73 1001.38 1001.30 1001.55 1002.13 1002.97 1004.00 1005.11 1006.17 1007.09 1007.82 1008.33 1008.66 1008.85 1008.97 1009.09 1009.28 1009.56 1009.92 1010.37 1010.85 1011.34 1011.79 1012.20 1012.55 1012.86 1013.16 1013.47 1013.81
1004.51 1004.20 1003.87 1003.57 1003.36 1003.23 1003.20 1003.21 1003.22 1003.17 1003.02 1002.75 1002.38 1001.95 1001.54 1001.24 1001.12 1001.25 1001.66 1002.32 1003.18 1004.17 1005.19 1006.14 1006.95 1007.59 1008.06 1008.36 1008.57 1008.74 1008.92 1009.16 1009.49 1009.89 1010.36 1010.85 1011.33 1011.78 1012.17 1012.51 1012.81 1013.09 1013.38 1013.70
1005.16 1004.96 1004.69 1004.37 1004.04 1003.72 1003.42 1003.13 1002.83 1002.51 1002.15 1001.76 1001.36 1001.00 1000.72 1000.59 1000.66 1000.95 1001.47 1002.18 1003.04 1003.97 1004.89 1005.74 1006.47 1007.04 1007.48 1007.81 1008.07 1008.31 1008.58 1008.91 1009.31 1009.77 1010.28 1010.79 1011.28 1011.72 1012.12 1012.46 1012.77 1013.06 1013.35 1013.67
1005.60 1005.54 1005.36 1005.07 1004.69 1004.24 1003.73 1003.19 1002.63 1002.05 1001.49 1000.96 1000.49 1000.13 999.92 999.89 1000.06 1000.45 1001.02 1001.74 1002.56 1003.41 1004.25 1005.01 1005.66 1006.21 1006.65 1007.02 1007.36 1007.70 1008.09 1008.52 1009.01 1009.53 1010.08 1010.62 1011.12 1011.58 1011.99 1012.36 1012.69 1013.01 1013.33 1013.68
1005.75 1005.83 1005.78 1005.57 1005.20 1004.70 1004.08 1003.37 1002.61 1001.84 1001.10 1000.43 999.88 999.48 999.26 999.25 999.46 999.85 1000.42 1001.10 1001.86 1002.64 1003.38 1004.07 1004.68 1005.21 1005.68 1006.12 1006.55 1007.01 1007.50 1008.03 1008.60 1009.18 1009.77 1010.33 1010.85 1011.33 1011.76 1012.16 1012.54 1012.91 1013.29 1013.68
1005.60 1005.81 1005.87 1005.76 1005.47 1004.99 1004.35 1003.57 1002.72 1001.83 1000.97 1000.19 999.55 999.09 998.83 998.80 998.97 999.33 999.85 1000.46 1001.14 1001.83 1002.50 1003.13 1003.71 1004.25 1004.76 1005.26 1005.78 1006.33 1006.91 1007.52 1008.14 1008.76 1009.37 1009.94 1010.47 1010.96 1011.42 1011.87 1012.30 1012.74 1013.19 1013.64
1005.21 1005.47 1005.63 1005.62 1005.42 1005.03 1004.44 1003.69 1002.83 1001.92 1001.02 1000.20 999.51 999.00 998.69 998.61 998.73 999.03 999.47 1000.01 1000.61 1001.23 1001.83 1002.42 1002.98 1003.52 1004.06 1004.62 1005.19 1005.80 1006.43 1007.07 1007.72 1008.34 1008.94 1009.50 1010.03 1010.52 1011.01 1011.49 1011.98 1012.49 1013.00 1013.52
1004.66 1004.91 1005.09 1005.15 1005.05 1004.76 1004.27 1003.62 1002.84 1001.99 1001.14 1000.34 999.66 999.15 998.83 998.72 998.80 999.05 999.43 999.91 1000.44 1000.99 1001.55 1002.10 1002.64 1003.18 1003.73 1004.30 1004.90 1005.51 1006.14 1006.78 1007.39 1007.99 1008.55 1009.08 1009.58 1010.07 1010.56 1011.07 1011.60 1012.16 1012.73 1013.30
1004.08 1004.23 1004.37 1004.43 1004.38 1004.19 1003.82 1003.31 1002.67 1001.95 1001.21 1000.52 999.92 999.47 999.18 999.08 999.16 999.39 999.74 1000.18 1000.67 1001.19 1001.71 1002.23 1002.75 1003.27 1003.80 1004.34 1004.91 1005.49 1006.08 1006.66 1007.21 1007.74 1008.25 1008.72 1009.18 1009.65 1010.13 1010.65 1011.20 1011.79 1012.39 1012.99
1003.56 1003.54 1003.56 1003.57 1003.53 1003.39 1003.14 1002.77 1002.30 1001.76 1001.20 1000.67 1000.21 999.87 999.68 999.64 999.76 1000.01 1000.37 1000.80 1001.28 1001.77 1002.27 1002.76 1003.24 1003.72 1004.20 1004.69 1005.19 1005.69 1006.20 1006.69 1007.17 1007.62 1008.05 1008.46 1008.87 1009.30 1009.76 1010.25 1010.80 1011.37 1011.98 1012.58
1003.18 1002.95 1002.79 1002.69 1002.61 1002.50 1002.34 1002.10 1001.81 1001.46 1001.10 1000.77 1000.49 1000.31 1000.24 1000.31 1000.51 1000.81 1001.20 1001.65 1002.13 1002.61 1003.08 1003.54 1003.97 1004.39 1004.80 1005.21 1005.62 1006.03 1006.43 1006.83 1007.22 1007.58 1007.94 1008.29 1008.65 1009.03 1009.44 1009.90 1010.40 1010.94 1011.50 1012.07
1002.95 1002.49 1002.15 1001.91 1001.76 1001.64 1001.54 1001.42 1001.29 1001.14 1000.98 1000.85 1000.76 1000.75 1000.83 1001.02 1001.30 1001.67 1002.10 1002.57 1003.05 1003.53 1003.97 1004.38 1004.76 1005.11 1005.44 1005.75 1006.06 1006.37 1006.68 1006.98 1007.29 1007.59 1007.88 1008.18 1008.49 1008.81 1009.17 1009.56 1009.99 1010.46 1010.95 1011.45
1002.80 1002.16 1001.65 1001.30 1001.07 1000.94 1000.88 1000.87 1000.87 1000.89 1000.92 1000.97 1001.06 1001.20 1001.41 1001.70 1002.06 1002.48 1002.94 1003.42 1003.90 1004.35 1004.76 1005.12 1005.44 1005.71 1005.95 1006.18 1006.39 1006.61 1006.84 1007.07 1007.31 1007.56 1007.81 1008.07 1008.33 1008.61 1008.90 1009.21 1009.55 1009.92 1010.31 1010.72
1002.68 1001.91 1001.31 1000.87 1000.60 1000.47 1000.46 1000.53 1000.66 1000.81 1000.99 1001.19 1001.41 1001.67 1001.98 1002.33 1002.73 1003.17 1003.64 1004.10 1004.55 1004.96 1005.33 1005.63 1005.88 1006.08 1006.25 1006.39 1006.54 1006.68 1006.85 1007.04 1007.24 1007.46 1007.68 1007.91 1008.13 1008.35 1008.57 1008.80 1009.03 1009.29 1009.56 1009.87
1002.48 1001.68 1001.04 1000.59 1000.33 1000.24 1000.29 1000.45 1000.69 1000.96 1001.25 1001.55 1001.86 1002.19 1002.53 1002.90 1003.30 1003.72 1004.14 1004.56 1004.96 1005.31 1005.61 1005.86 1006.04 1006.18 1006.29 1006.38 1006.46 1006.57 1006.70 1006.85 1007.03 1007.23 1007.44 1007.64 1007.83 1008.00 1008.15 1008.29 1008.42 1008.56 1008.72 1008.92
Thickness
5792 5779 5775 5786 5797 5798 5797 5791 5789 5801 5819 5810 5802 5802 5808 5813 5812 5808 5806 5803 5801 5799 5801 5800 5797 5793 5789 5784 5779 5775 5771 5768 5764 5760 5755 5751 5747 5747 5746 5744 5743 5740 5738 5736
5779 5775 5793 5803 5804 5802 5796 5788 5790 5803 5815 5808 5800 5799 5806 5807 5804 5802 5800 5798 5796 5794 5793 5791 5789 5786 5783 5778 5775 5771 5767 5764 5760 5757 5753 5750 5747 5744 5743 5741 5739 5737 5735 5733
5773 5790 5805 5799 5795 5791 5791 5787 5789 5792 5802 5805 5795 5786 5790 5798 5800 5796 5795 5795 5792 5790 5785 5783 5782 5779 5777 5773 5770 5768 5764 5760 5756 5753 5750 5746 5743 5740 5738 5736 5735 5734 5732 5731
5784 5799 5799 5793 5789 5788 5779 5796 5796 5791 5783 5777 5784 5762 5775 5783 5784 5784 5785 5785 5784 5785 5782 5778 5776 5773 5771 5768 5767 5764 5760 5756 5752 5749 5745 5740 5736 5733 5733 5732 5731 5730 5729 5728
5780 5793 5789 5784 5789 5792 5787 5799 5793 5788 5780 5774 5779 5763 5762 5777 5770 5773 5777 5779 5778 5777 5776 5772 5770 5769 5768 5765 5762 5760 5755 5751 5748 5744 5741 5737 5734 5732 5731 5730 5727 5726 5725 5724
5786 5801 5798 5793 5798 5797 5794 5788 5784 5783 5775 5753 5766 5759 5753 5767 5768 5769 5772 5773 5772 5771 5770 5765 5765 5765 5763 5761 5758 5755 5749 5745 5743 5740 5737 5734 5730 5729 5727 5725 5722 5721 5720 5719
5767 5782 5795 5797 5782 5786 5782 5762 5743 5740 5742 5745 5767 5758 5752 5767 5774 5771 5766 5765 5767 5766 5764 5759 5757 5756 5755 5754 5751 5748 5744 5740 5738 5736 5733 5731 5728 5726 5723 5721 5718 5717 5715 5714
5752 5757 5779 5785 5776 5769 5770 5761 5736 5723 5731 5744 5758 5746 5751 5766 5771 5770 5765 5763 5762 5760 5759 5755 5752 5751 5749 5747 5745 5742 5738 5735 5733 5731 5728 5727 5724 5722 5720 5718 5716 5715 5713 5712
5750 5754 5783 5786 5784 5773 5762 5761 5769 5750 5745 5739 5746 5748 5748 5760 5758 5757 5756 5755 5754 5752 5750 5750 5748 5746 5744 5741 5739 5736 5733 5729 5727 5725 5723 5721 5719 5718 5716 5715 5714 5712 5710 5710
5755 5743 5764 5776 5776 5774 5771 5767 5757 5742 5721 5718 5734 5737 5732 5737 5740 5743 5744 5748 5748 5747 5745 5744 5742 5740 5738 5736 5734 5731 5728 5724 5722 5720 5718 5717 5715 5713 5711 5710 5709 5708 5707 5705
5751 5736 5745 5757 5751 5749 5756 5754 5750 5743 5737 5717 5712 5723 5746 5739 5738 5736 5738 5742 5743 5741 5739 5738 5736 5735 5733 5731 5728 5725 5722 5719 5716 5714 5713 5711 5709 5708 5707 5705 5704 5703 5701 5700
5739 5730 5725 5739 5759 5766 5755 5748 5743 5723 5721 5725 5717 5719 5747 5742 5742 5738 5737 5738 5737 5735 5733 5731 5729 5727 5726 5723 5720 5718 5716 5713 5711 5709 5708 5706 5705 5703 5701 5699 5698 5698 5696 5695
5724 5713 5702 5713 5729 5742 5739 5741 5740 5736 5727 5720 5714 5715 5741 5738 5734 5734 5733 5732 5730 5727 5726 5724 5721 5718 5716 5715 5712 5711 5710 5708 5706 5705 5703 5701 5698 5697 5695 5694 5693 5693 5691 5690
5721 5705 5696 5691 5705 5719 5719 5725 5729 5726 5716 5715 5718 5715 5724 5726 5724 5724 5725 5725 5723 5720 5718 5715 5712 5710 5708 5707 5705 5704 5703 5702 5701 5699 5697 5694 5692 5691 5690 5690 5688 5687 5687 5685
5710 5695 5699 5706 5716 5718 5714 5716 5720 5717 5717 5713 5717 5716 5717 5718 5718 5717 5717 5717 5715 5712 5708 5706 5704 5701 5699 5699 5697 5696 5696 5695 5693 5691 5689 5688 5687 5685 5685 5684 5683 5683 5682 5681
5700 5689 5692 5696 5709 5710 5705 5710 5713 5714 5716 5713 5713 5711 5720 5720 5716 5711 5708 5706 5705 5703 5702 5700 5696 5694 5692 5691 5689 5689 5688 5687 5686 5684 5682 5681 5680 5679 5679 5679 5678 5677 5676 5676
5690 5682 5677 5680 5695 5694 5688 5702 5705 5706 5711 5710 5703 5705 5711 5706 5703 5699 5698 5698 5696 5695 5694 5692 5689 5687 5685 5684 5683 5681 5681 5681 5679 5677 5676 5675 5674 5673 5673 5673 5672 5671 5670 5669
5680 5675 5672 5672 5674 5659 5683 5704 5705 5702 5702 5707 5704 5702 5701 5698 5697 5695 5692 5689 5688 5687 5685 5684 5682 5680 5679 5678 5677 5676 5675 5673 5672 5670 5669 5668 5667 5667 5666 5666 5665 5665 5664 5664
5684 5670 5663 5661 5657 5662 5676 5689 5691 5687 5685 5694 5692 5690 5691 5691 5687 5683 5685 5684 5681 5680 5678 5677 5675 5674 5672 5671 5670 5668 5667 5666 5664 5663 5662 5662 5661 5660 5660 5659 5659 5659 5658 5658
5682 5672 5658 5654 5645 5645 5663 5682 5690 5683 5668 5681 5682 5679 5678 5676 5667 5666 5674 5674 5672 5671 5670 5669 5668 5667 5664 5663 5663 5661 5659 5658 5656 5656 5656 5656 5656 5655 5654 5653 5653 5653 5653 5653
5660 5656 5650 5647 5644 5651 5666 5676 5678 5655 5652 5668 5669 5668 5667 5664 5662 5663 5665 5664 5662 5660 5660 5660 5659 5658 5656 5656 5655 5653 5652 5651 5651 5651 5650 5650 5649 5649 5648 5648 5648 5648 5648 5648
5650 5646 5643 5643 5637 5639 5662 5665 5654 5649 5659 5661 5660 5660 5658 5658 5658 5656 5654 5652 5651 5650 5650 5651 5650 5648 5648 5649 5647 5645 5644 5645 5646 5645 5644 5643 5643 5643 5644 5642 5641 5641 5642 5642
5651 5649 5645 5638 5634 5644 5653 5652 5652 5653 5651 5652 5652 5652 5651 5648 5647 5646 5644 5642 5641 5641 5641 5641 5641 5640 5640 5640 5639 5638 5639 5640 5639 5638 5637 5637 5637 5637 5637 5636 5635 5635 5636 5636
5649 5654 5644 5637 5637 5641 5643 5646 5647 5646 5645 5647 5646 5644 5642 5639 5638 5636 5635 5633 5633 5632 5632 5633 5633 5632 5631 5632 5632 5632 5632 5632 5632 5630 5630 5630 5630 5630 5631 5631 5631 5630 5630 5630
5638 5641 5636 5631 5631 5634 5634 5636 5638 5639 5639 5638 5638 5636 5634 5632 5630 5629 5627 5626 5626 5625 5625 5625 5625 5624 5624 5624 5624 5625 5625 5625 5624 5623 5623 5624 5624 5625 5624 5623 5623 5624 5623 5623
5633 5632 5626 5621 5626 5624 5626 5631 5634 5631 5629 5628 5628 5627 5626 5625 5623 5621 5620 5619 5619 5619 5618 5618 5618 5618 5617 5617 5616 5617 5618 5617 5616 5615 5615 5616 5617 5617 5618 5618 5617 5617 5617 5617